QPF
0.00 0.00 0.00 0.00 0.00 0.00 0.00 0.00 0.00 0.00 0.00 0.00 0.00 0.00 0.00 0.00 0.00 0.00 0.00 0.00 0.00 0.00 0.00 0.00 0.00 0.00 0.00 0.00 0.00 0.00 0.00 0.00 0.00 0.00 0.00 0.00 0.00 0.00 0.00 0.00 0.00 0.00 0.00 0.00 0.00
0.00 0.00 0.00 0.00 0.00 0.00 0.00 0.00 0.00 0.00 0.00 0.00 0.00 0.00 0.00 0.00 0.00 0.00 0.00 0.00 0.00 0.00 0.00 0.00 0.00 0.00 0.00 0.00 0.00 0.00 0.00 0.00 0.00 0.00 0.00 0.00 0.00 0.00 0.00 0.00 0.00 0.00 0.00 0.00 0.00
0.00 0.00 0.00 0.00 0.00 0.00 0.00 0.00 0.00 0.00 0.00 0.00 0.00 0.00 0.00 0.00 0.00 0.00 0.00 0.00 0.00 0.00 0.00 0.00 0.00 0.00 0.00 0.00 0.00 0.00 0.00 0.00 0.00 0.00 0.00 0.00 0.00 0.00 0.00 0.00 0.00 0.00 0.00 0.00 0.00
0.00 0.00 0.00 0.00 0.00 0.00 0.00 0.00 0.00 0.00 0.00 0.00 0.00 0.00 0.00 0.00 0.00 0.00 0.00 0.00 0.00 0.00 0.00 0.00 0.00 0.00 0.00 0.00 0.00 0.00 0.00 0.00 0.00 0.00 0.00 0.00 0.00 0.00 0.00 0.00 0.00 0.00 0.00 0.00 0.00
0.00 0.00 0.00 0.00 0.00 0.00 0.00 0.00 0.00 0.00 0.00 0.00 0.00 0.00 0.00 0.00 0.00 0.00 0.00 0.00 0.00 0.00 0.00 0.00 0.00 0.00 0.00 0.00 0.00 0.00 0.00 0.00 0.00 0.00 0.00 0.00 0.00 0.00 0.00 0.00 0.00 0.00 0.00 0.00 0.00
0.00 0.00 0.00 0.00 0.00 0.00 0.00 0.00 0.00 0.00 0.00 0.00 0.00 0.00 0.00 0.00 0.00 0.00 0.00 0.00 0.00 0.00 0.00 0.00 0.00 0.00 0.00 0.00 0.00 0.00 0.00 0.00 0.00 0.00 0.00 0.00 0.00 0.00 0.00 0.00 0.00 0.00 0.00 0.00 0.00
0.00 0.00 0.00 0.00 0.00 0.00 0.00 0.00 0.00 0.00 0.00 0.00 0.00 0.00 0.00 0.00 0.00 0.00 0.00 0.00 0.00 0.00 0.00 0.00 0.00 0.00 0.00 0.00 0.00 0.00 0.00 0.00 0.00 0.00 0.00 0.00 0.00 0.00 0.00 0.00 0.00 0.00 0.00 0.00 0.00
0.00 0.00 0.00 0.00 0.00 0.00 0.00 0.00 0.00 0.00 0.00 0.00 0.00 0.00 0.00 0.00 0.00 0.00 0.00 0.00 0.00 0.00 0.00 0.00 0.00 0.00 0.00 0.00 0.00 0.00 0.00 0.00 0.00 0.00 0.00 0.00 0.00 0.00 0.00 0.00 0.00 0.00 0.00 0.00 0.00
0.00 0.00 0.00 0.00 0.00 0.00 0.00 0.00 0.00 0.00 0.00 0.00 0.00 0.00 0.00 0.00 0.00 0.00 0.00 0.00 0.00 0.00 0.00 0.00 0.00 0.00 0.00 0.00 0.00 0.00 0.00 0.00 0.00 0.00 0.00 0.00 0.00 0.00 0.00 0.00 0.00 0.00 0.00 0.00 0.00
0.00 0.00 0.00 0.00 0.00 0.00 0.00 0.00 0.00 0.00 0.00 0.00 0.00 0.00 0.00 0.00 0.00 0.00 0.00 0.00 0.00 0.00 0.00 0.00 0.00 0.00 0.00 0.00 0.00 0.00 0.00 0.00 0.00 0.00 0.00 0.00 0.00 0.00 0.00 0.00 0.00 0.00 0.00 0.00 0.00
0.00 0.00 0.00 0.00 0.00 0.00 0.00 0.00 0.00 0.00 0.00 0.00 0.00 0.00 0.00 0.00 0.00 0.00 0.00 0.00 0.00 0.00 0.00 0.00 0.00 0.00 0.00 0.00 0.00 0.00 0.00 0.00 0.00 0.00 0.00 0.00 0.00 0.00 0.00 0.00 0.00 0.00 0.00 0.00 0.00
0.00 0.00 0.00 0.00 0.00 0.00 0.00 0.00 0.00 0.00 0.00 0.00 0.00 0.00 0.00 0.00 0.00 0.00 0.00 0.00 0.00 0.00 0.00 0.00 0.00 0.00 0.00 0.00 0.00 0.00 0.00 0.00 0.00 0.00 0.00 0.00 0.00 0.00 0.00 0.00 0.00 0.00 0.00 0.00 0.00
0.00 0.00 0.00 0.00 0.00 0.00 0.00 0.00 0.00 0.00 0.00 0.00 0.00 0.00 0.00 0.00 0.00 0.00 0.00 0.00 0.00 0.00 0.00 0.00 0.00 0.00 0.00 0.00 0.00 0.00 0.00 0.00 0.00 0.00 0.00 0.00 0.00 0.00 0.00 0.00 0.00 0.00 0.00 0.00 0.00
0.00 0.00 0.00 0.00 0.00 0.00 0.00 0.00 0.00 0.00 0.00 0.00 0.00 0.00 0.00 0.00 0.00 0.00 0.00 0.00 0.00 0.00 0.00 0.00 0.00 0.00 0.00 0.00 0.00 0.00 0.00 0.00 0.00 0.00 0.00 0.00 0.00 0.00 0.00 0.00 0.00 0.00 0.00 0.00 0.00
0.00 0.00 0.00 0.00 0.00 0.00 0.00 0.00 0.00 0.00 0.00 0.00 0.00 0.00 0.00 0.00 0.00 0.00 0.00 0.00 0.00 0.00 0.00 0.00 0.00 0.00 0.00 0.00 0.00 0.00 0.00 0.00 0.00 0.00 0.00 0.00 0.00 0.00 0.00 0.00 0.00 0.00 0.00 0.00 0.00
0.00 0.00 0.00 0.00 0.00 0.00 0.00 0.00 0.00 0.00 0.00 0.00 0.00 0.00 0.00 0.00 0.00 0.00 0.00 0.00 0.00 0.00 0.00 0.00 0.00 0.00 0.00 0.00 0.00 0.00 0.00 0.00 0.00 0.00 0.00 0.00 0.00 0.00 0.00 0.00 0.00 0.00 0.00 0.00 0.00
0.00 0.00 0.00 0.00 0.00 0.00 0.00 0.00 0.00 0.00 0.00 0.00 0.00 0.00 0.00 0.00 0.00 0.00 0.00 0.00 0.00 0.00 0.00 0.00 0.00 0.00 0.00 0.00 0.00 0.00 0.00 0.00 0.00 0.00 0.00 0.00 0.00 0.00 0.00 0.00 0.00 0.00 0.00 0.00 0.00
0.00 0.00 0.00 0.00 0.00 0.00 0.00 0.00 0.00 0.00 0.00 0.00 0.00 0.00 0.00 0.00 0.00 0.00 0.00 0.00 0.00 0.00 0.00 0.00 0.00 0.00 0.00 0.00 0.00 0.00 0.00 0.00 0.01 0.00 0.00 0.00 0.00 0.00 0.00 0.00 0.00 0.00 0.00 0.00 0.00
0.00 0.00 0.00 0.00 0.00 0.00 0.00 0.00 0.00 0.00 0.00 0.00 0.00 0.00 0.00 0.00 0.00 0.00 0.00 0.00 0.00 0.00 0.00 0.00 0.00 0.00 0.00 0.00 0.00 0.00 0.00 0.00 0.00 0.00 0.00 0.00 0.00 0.00 0.00 0.00 0.00 0.00 0.00 0.00 0.00
0.00 0.00 0.00 0.00 0.00 0.00 0.00 0.00 0.00 0.00 0.00 0.00 0.00 0.00 0.00 0.00 0.00 0.00 0.00 0.00 0.00 0.00 0.00 0.00 0.00 0.00 0.00 0.00 0.00 0.00 0.00 0.00 0.00 0.00 0.00 0.00 0.00 0.00 0.00 0.00 0.00 0.00 0.00 0.00 0.00
0.00 0.00 0.00 0.00 0.00 0.00 0.00 0.00 0.00 0.00 0.00 0.00 0.00 0.00 0.00 0.00 0.00 0.00 0.00 0.00 0.00 0.00 0.00 0.00 0.01 0.00 0.00 0.00 0.00 0.00 0.00 0.00 0.00 0.00 0.00 0.00 0.00 0.00 0.00 0.00 0.00 0.00 0.00 0.00 0.00
0.00 0.00 0.00 0.00 0.00 0.00 0.00 0.00 0.00 0.00 0.00 0.00 0.00 0.00 0.00 0.00 0.00 0.00 0.00 0.00 0.00 0.00 0.00 0.00 0.00 0.00 0.00 0.00 0.00 0.00 0.00 0.00 0.01 0.00 0.01 0.01 0.00 0.00 0.00 0.00 0.00 0.00 0.00 0.00 0.00
0.00 0.00 0.00 0.00 0.00 0.00 0.00 0.00 0.00 0.00 0.00 0.00 0.00 0.00 0.00 0.00 0.00 0.00 0.00 0.00 0.00 0.00 0.00 0.00 0.00 0.00 0.00 0.00 0.00 0.00 0.00 0.01 0.01 0.01 0.01 0.01 0.00 0.00 0.00 0.00 0.00 0.00 0.00 0.00 0.00
0.00 0.00 0.00 0.00 0.00 0.00 0.00 0.00 0.00 0.00 0.00 0.00 0.00 0.00 0.00 0.00 0.00 0.00 0.00 0.00 0.00 0.00 0.00 0.00 0.00 0.00 0.00 0.00 0.00 0.00 0.00 0.00 0.00 0.01 0.00 0.00 0.00 0.00 0.00 0.00 0.00 0.00 0.00 0.00 0.00
0.00 0.00 0.00 0.00 0.00 0.00 0.00 0.00 0.00 0.00 0.00 0.00 0.00 0.00 0.00 0.00 0.00 0.00 0.00 0.00 0.00 0.00 0.00 0.00 0.00 0.00 0.00 0.00 0.00 0.00 0.00 0.00 0.00 0.00 0.00 0.00 0.00 0.00 0.00 0.00 0.00 0.00 0.00 0.00 0.00
0.00 0.00 0.00 0.00 0.00 0.00 0.00 0.00 0.00 0.00 0.00 0.00 0.00 0.00 0.00 0.00 0.00 0.00 0.00 0.00 0.00 0.00 0.00 0.00 0.00 0.00 0.00 0.00 0.00 0.00 0.00 0.00 0.00 0.00 0.00 0.00 0.00 0.00 0.00 0.00 0.00 0.00 0.00 0.00 0.00
0.00 0.00 0.00 0.00 0.00 0.00 0.00 0.00 0.00 0.00 0.00 0.00 0.00 0.00 0.00 0.00 0.00 0.00 0.00 0.00 0.00 0.00 0.00 0.00 0.00 0.00 0.00 0.00 0.00 0.00 0.00 0.00 0.00 0.00 0.00 0.00 0.00 0.00 0.00 0.00 0.00 0.00 0.00 0.00 0.00
MSLP
1021.05 1020.54 1020.12 1019.84 1019.38 1018.92 1017.89 1018.74 1018.15 1017.70 1017.45 1017.36 1017.07 1016.57 1016.18 1015.76 1015.21 1014.41 1013.87 1013.64 1013.43 1013.50 1013.32 1012.63 1012.44 1012.08 1011.85 1011.27 1010.94 1010.92 1009.32 1007.64 1007.01 1006.45 1006.24 1007.13 1007.46 1007.05 1006.84 1006.55 1006.16 1006.30 1006.71 1007.40 1007.30
1020.95 1020.61 1020.28 1019.60 1019.07 1018.63 1018.26 1018.19 1018.30 1017.42 1017.23 1017.11 1016.94 1016.55 1016.06 1015.74 1014.82 1013.75 1013.60 1013.66 1013.71 1013.59 1013.09 1012.60 1012.23 1012.08 1011.67 1011.23 1011.13 1010.55 1009.11 1007.70 1007.12 1006.62 1006.58 1006.91 1007.34 1006.81 1006.74 1006.41 1006.20 1006.45 1006.96 1007.66 1007.67
1020.96 1020.51 1020.07 1019.64 1018.98 1018.40 1017.93 1017.90 1017.92 1017.28 1016.99 1016.76 1016.76 1016.47 1016.10 1015.70 1014.27 1013.10 1013.52 1013.41 1013.62 1013.63 1013.17 1012.70 1012.37 1012.23 1011.70 1011.33 1010.87 1010.06 1009.05 1008.05 1007.47 1007.41 1007.74 1007.57 1007.34 1007.31 1006.89 1006.20 1005.91 1005.85 1005.99 1006.99 1007.65
1021.00 1020.55 1020.01 1019.48 1018.78 1018.06 1017.48 1017.59 1017.56 1017.01 1016.65 1016.57 1016.41 1016.25 1016.02 1015.33 1013.98 1013.42 1013.42 1013.54 1013.62 1013.42 1013.31 1013.00 1012.70 1012.45 1011.92 1011.25 1010.90 1010.27 1009.66 1008.98 1008.41 1008.04 1008.25 1008.01 1007.68 1007.24 1006.97 1006.53 1006.17 1006.02 1006.43 1006.75 1007.46
1020.99 1020.61 1019.94 1019.42 1018.74 1017.73 1017.06 1017.14 1017.15 1016.63 1016.10 1016.20 1016.37 1016.16 1015.74 1014.64 1013.39 1013.54 1013.74 1013.86 1013.70 1013.67 1013.41 1013.21 1012.91 1012.49 1011.99 1011.43 1011.14 1010.53 1010.00 1009.33 1008.76 1008.80 1008.53 1008.37 1007.81 1007.42 1006.98 1006.82 1006.77 1006.48 1007.14 1006.98 1007.01
1020.79 1020.44 1019.95 1019.22 1018.43 1017.61 1016.83 1016.79 1016.48 1016.29 1015.78 1015.70 1016.07 1016.11 1015.32 1014.12 1013.74 1013.69 1013.79 1013.94 1013.85 1013.70 1013.61 1013.47 1013.05 1012.81 1012.50 1011.95 1011.45 1010.39 1010.26 1009.57 1009.08 1008.64 1008.46 1008.23 1007.54 1007.60 1007.11 1007.09 1006.81 1006.61 1006.76 1006.72 1006.70
1020.73 1020.24 1019.76 1019.09 1018.21 1017.40 1016.65 1016.52 1016.01 1015.60 1015.23 1015.29 1015.74 1015.59 1014.80 1013.82 1013.69 1013.82 1013.91 1013.73 1013.91 1013.77 1013.59 1013.64 1013.61 1013.31 1012.70 1012.15 1011.67 1011.31 1010.56 1009.48 1008.54 1008.16 1008.14 1008.16 1007.22 1006.74 1006.58 1006.66 1006.38 1006.21 1005.96 1006.13 1006.12
1020.63 1020.15 1019.53 1019.09 1017.95 1017.14 1016.50 1016.14 1015.83 1015.27 1015.16 1015.32 1015.73 1015.27 1013.58 1014.05 1013.67 1013.84 1013.74 1013.67 1013.89 1013.99 1013.96 1013.98 1013.83 1013.43 1013.16 1012.53 1011.92 1011.38 1010.33 1009.00 1007.55 1007.66 1007.35 1008.22 1006.42 1005.77 1005.32 1005.75 1005.75 1005.62 1005.41 1005.49 1005.44
1020.28 1020.08 1019.30 1019.10 1017.74 1016.93 1016.29 1015.81 1015.56 1015.26 1015.29 1015.58 1015.41 1015.10 1013.66 1014.32 1013.95 1013.87 1013.62 1013.35 1013.62 1013.80 1013.89 1013.92 1013.88 1013.34 1013.10 1012.63 1011.73 1010.88 1009.63 1008.55 1007.78 1007.33 1007.53 1007.62 1006.10 1005.24 1005.45 1005.22 1005.23 1004.94 1004.73 1004.83 1004.89
1020.29 1019.90 1019.22 1019.09 1017.68 1017.02 1016.25 1015.89 1015.70 1015.67 1015.29 1015.07 1014.99 1015.00 1013.83 1014.14 1014.11 1014.01 1013.84 1013.60 1013.38 1013.54 1013.73 1013.68 1013.36 1012.96 1012.50 1011.89 1010.58 1009.76 1009.38 1008.85 1008.12 1007.90 1007.92 1007.25 1006.36 1005.61 1005.36 1005.14 1005.05 1004.87 1004.52 1004.45 1004.27
1020.24 1019.86 1019.04 1018.89 1017.77 1017.27 1016.17 1015.70 1016.03 1015.83 1015.30 1015.01 1014.80 1014.63 1014.26 1014.21 1014.53 1013.96 1013.94 1013.61 1013.29 1013.16 1012.79 1013.03 1012.80 1011.75 1011.03 1011.11 1010.95 1010.58 1010.25 1009.36 1008.64 1008.16 1008.04 1007.43 1006.37 1005.27 1004.81 1004.60 1004.29 1004.24 1004.14 1004.02 1003.90
1020.21 1019.52 1018.99 1018.54 1017.79 1017.26 1016.39 1016.60 1018.34 1018.51 1016.46 1015.59 1015.25 1015.03 1014.73 1014.66 1014.12 1014.13 1014.16 1013.65 1013.13 1012.54 1012.49 1012.84 1011.73 1011.21 1011.10 1011.47 1011.28 1011.03 1010.54 1009.71 1008.92 1008.47 1008.37 1007.39 1006.13 1005.33 1004.08 1003.72 1003.47 1003.21 1003.21 1003.19 1003.36
1020.12 1019.41 1018.98 1018.34 1017.85 1017.65 1017.89 1018.60 1019.03 1018.62 1016.75 1015.58 1015.06 1014.74 1014.71 1014.86 1013.99 1013.89 1014.29 1013.60 1012.95 1012.36 1012.25 1011.76 1010.87 1011.49 1011.55 1011.38 1011.37 1010.98 1010.63 1009.97 1009.53 1008.74 1008.22 1007.41 1005.49 1003.92 1002.89 1002.70 1002.68 1002.35 1002.49 1002.87 1003.00
1019.92 1019.40 1018.85 1018.26 1018.22 1018.33 1018.45 1018.97 1018.84 1018.60 1016.94 1015.65 1014.88 1014.71 1014.78 1014.58 1014.22 1014.42 1014.25 1014.12 1013.47 1012.80 1012.30 1011.75 1011.15 1011.50 1011.46 1011.30 1011.29 1010.84 1010.47 1010.12 1009.95 1009.67 1008.52 1008.16 1005.56 1003.88 1002.62 1002.08 1002.03 1001.87 1002.32 1002.69 1003.02
1019.97 1019.56 1019.03 1018.60 1018.57 1018.63 1019.37 1019.10 1018.71 1018.31 1017.05 1016.05 1015.15 1015.02 1014.61 1014.77 1014.55 1014.36 1014.61 1014.24 1013.51 1012.91 1013.46 1011.73 1011.73 1011.72 1011.43 1011.05 1011.20 1010.93 1011.06 1010.85 1010.47 1009.97 1009.15 1007.75 1006.84 1003.94 1002.67 1002.30 1001.80 1002.39 1002.94 1003.09 1003.32
1020.06 1019.61 1019.25 1018.79 1018.83 1019.48 1019.34 1019.07 1018.43 1018.03 1016.87 1016.39 1015.66 1015.34 1014.80 1014.67 1014.57 1014.49 1014.49 1014.64 1014.29 1013.80 1013.07 1012.41 1012.31 1012.43 1011.51 1011.36 1011.43 1011.37 1011.23 1010.87 1010.77 1010.35 1008.94 1007.27 1006.06 1003.58 1002.20 1001.98 1002.47 1003.31 1004.03 1004.22 1004.37
1020.10 1019.78 1019.39 1019.41 1019.50 1019.38 1019.11 1018.48 1018.41 1017.99 1017.86 1017.75 1017.12 1016.67 1016.26 1015.72 1015.13 1014.96 1014.75 1014.55 1014.95 1014.48 1013.24 1012.61 1011.99 1012.28 1012.31 1011.85 1011.60 1011.75 1011.50 1010.96 1010.49 1010.26 1008.22 1007.37 1006.11 1003.71 1003.00 1002.98 1003.92 1004.42 1004.83 1005.01 1005.12
1020.06 1019.91 1019.79 1019.69 1019.76 1019.32 1018.75 1018.13 1018.55 1018.92 1018.84 1018.71 1018.27 1017.67 1016.92 1016.88 1016.16 1015.80 1015.49 1015.53 1016.23 1016.29 1015.25 1013.63 1012.47 1012.45 1012.67 1012.26 1011.65 1011.66 1011.69 1010.87 1009.86 1009.08 1008.00 1007.48 1005.78 1003.28 1003.84 1004.07 1004.65 1005.08 1005.51 1005.42 1005.58
1020.07 1019.63 1019.37 1019.46 1019.58 1019.18 1018.31 1018.76 1019.25 1019.54 1019.86 1019.48 1018.84 1018.52 1018.30 1017.95 1017.60 1016.52 1016.80 1017.19 1018.16 1018.05 1017.46 1015.58 1013.79 1013.23 1013.20 1013.09 1013.07 1012.25 1012.11 1011.37 1011.06 1010.55 1009.82 1007.21 1005.39 1004.36 1003.87 1004.65 1005.03 1005.44 1005.95 1005.85 1006.07
1019.95 1019.65 1019.24 1019.51 1019.43 1018.95 1018.69 1019.53 1020.07 1020.40 1020.31 1020.11 1019.79 1019.82 1019.29 1019.21 1018.33 1017.90 1017.84 1018.84 1018.83 1019.05 1019.23 1017.96 1016.18 1014.09 1013.75 1013.67 1013.37 1013.43 1013.10 1012.45 1012.17 1010.97 1009.15 1006.83 1005.95 1004.84 1004.75 1005.46 1006.02 1006.36 1006.80 1006.73 1006.81
1020.02 1019.33 1019.40 1019.40 1019.22 1018.78 1019.49 1020.56 1020.69 1020.75 1020.72 1020.60 1020.50 1020.54 1020.43 1020.26 1020.05 1019.37 1018.94 1019.86 1019.85 1019.65 1019.38 1018.90 1018.05 1015.29 1014.47 1013.83 1013.79 1014.11 1013.89 1013.68 1012.95 1011.58 1009.95 1008.07 1006.08 1005.31 1005.91 1006.70 1007.10 1007.68 1008.09 1008.04 1007.59
1019.93 1019.76 1019.70 1019.48 1019.50 1020.51 1020.66 1021.10 1021.50 1021.24 1021.06 1020.82 1020.63 1021.00 1021.08 1021.10 1020.81 1020.21 1019.69 1020.00 1020.62 1020.50 1020.25 1019.84 1019.00 1017.05 1015.54 1014.66 1014.83 1015.38 1015.28 1015.36 1014.89 1013.22 1011.76 1010.00 1007.28 1005.56 1007.01 1007.88 1008.53 1008.81 1008.93 1008.86 1008.68
1020.16 1019.99 1019.46 1019.17 1020.03 1021.15 1021.80 1021.52 1021.46 1021.57 1021.43 1021.19 1021.02 1021.22 1021.67 1022.08 1022.11 1021.44 1020.93 1021.01 1021.16 1021.17 1021.18 1021.00 1019.88 1018.61 1016.33 1015.84 1016.48 1016.71 1017.03 1017.55 1017.57 1016.71 1014.19 1012.62 1008.62 1007.29 1007.70 1008.57 1009.71 1010.03 1009.43 1009.34 1009.23
1020.87 1020.63 1020.53 1020.53 1021.39 1021.53 1021.95 1022.14 1021.88 1021.83 1021.59 1021.61 1021.62 1021.76 1022.13 1022.44 1022.44 1022.09 1021.53 1021.41 1021.79 1021.83 1021.99 1021.85 1021.18 1020.56 1019.01 1017.81 1018.82 1018.53 1018.32 1018.41 1018.68 1018.27 1015.93 1013.94 1011.47 1011.44 1011.23 1010.94 1009.48 1010.59 1010.81 1010.69 1010.39
1021.58 1022.12 1022.71 1022.33 1022.15 1022.28 1022.25 1022.39 1022.06 1021.94 1021.99 1021.89 1021.78 1021.92 1022.26 1022.62 1022.56 1022.48 1022.16 1021.93 1021.85 1021.97 1022.19 1022.32 1021.69 1021.41 1020.76 1020.14 1019.89 1019.27 1018.83 1018.69 1018.94 1018.50 1018.07 1014.14 1014.74 1014.65 1014.27 1013.49 1012.76 1012.00 1012.04 1011.80 1011.29
1021.90 1022.19 1023.04 1023.07 1023.06 1022.65 1022.65 1022.51 1022.08 1022.03 1022.05 1021.68 1021.60 1021.60 1021.99 1022.19 1021.80 1021.96 1022.16 1022.25 1022.04 1022.01 1022.36 1022.51 1022.00 1021.69 1020.89 1020.89 1020.43 1019.59 1019.09 1018.76 1018.23 1017.67 1016.91 1015.85 1014.41 1014.62 1014.07 1014.12 1013.98 1013.62 1013.16 1012.81 1012.58
1022.70 1022.79 1022.47 1022.94 1023.15 1022.90 1022.24 1022.17 1022.05 1021.78 1021.57 1021.41 1021.44 1021.48 1021.44 1020.92 1021.32 1021.48 1021.67 1021.79 1021.95 1022.24 1022.47 1022.56 1022.25 1022.25 1020.91 1020.98 1020.43 1019.41 1018.65 1017.87 1017.35 1017.02 1016.66 1015.65 1014.87 1015.02 1014.72 1014.85 1014.69 1014.13 1013.48 1013.05 1013.00
Thickness
5570 5570 5570 5570 5571 5571 5578 5559 5564 5565 5562 5559 5559 5560 5561 5562 5564 5572 5575 5580 5582 5582 5586 5593 5594 5598 5601 5604 5611 5611 5610 5617 5628 5636 5643 5642 5632 5650 5659 5656 5664 5668 5667 5668 5679
5564 5564 5562 5566 5567 5568 5565 5560 5554 5561 5560 5557 5554 5554 5554 5553 5560 5567 5569 5570 5571 5573 5579 5582 5584 5588 5590 5595 5597 5598 5604 5618 5636 5640 5636 5637 5631 5640 5642 5647 5652 5656 5661 5662 5668
5557 5558 5559 5559 5561 5564 5562 5558 5551 5556 5556 5553 5549 5548 5547 5545 5555 5565 5561 5563 5562 5565 5571 5576 5579 5579 5580 5587 5591 5598 5598 5620 5626 5627 5624 5623 5626 5633 5632 5636 5648 5650 5658 5656 5657
5550 5551 5553 5555 5557 5560 5561 5555 5549 5552 5553 5549 5547 5545 5542 5543 5554 5556 5555 5555 5554 5558 5561 5563 5566 5566 5570 5576 5585 5584 5596 5603 5610 5616 5612 5612 5621 5622 5627 5634 5646 5647 5650 5653 5648
5543 5544 5548 5548 5550 5557 5560 5554 5547 5550 5553 5548 5542 5541 5542 5546 5551 5547 5546 5546 5547 5548 5550 5552 5554 5559 5562 5571 5575 5576 5585 5595 5603 5601 5605 5608 5610 5614 5619 5627 5633 5637 5632 5638 5645
5539 5539 5541 5544 5548 5552 5556 5552 5550 5547 5550 5548 5540 5537 5543 5548 5543 5541 5541 5540 5540 5540 5542 5544 5547 5551 5552 5559 5563 5578 5578 5584 5591 5596 5599 5597 5607 5606 5614 5618 5620 5625 5626 5633 5639
5533 5535 5536 5538 5544 5548 5552 5549 5550 5549 5550 5547 5540 5538 5543 5550 5542 5537 5536 5538 5536 5536 5536 5537 5537 5540 5546 5547 5558 5559 5563 5577 5588 5594 5591 5594 5596 5600 5615 5614 5615 5619 5626 5630 5635
5527 5529 5532 5533 5540 5544 5547 5546 5545 5547 5547 5543 5536 5537 5552 5542 5541 5536 5534 5533 5532 5531 5531 5531 5532 5535 5535 5543 5547 5548 5561 5566 5592 5591 5596 5583 5589 5612 5622 5613 5612 5616 5623 5626 5631
5524 5522 5528 5527 5536 5540 5543 5545 5543 5543 5541 5536 5536 5535 5548 5537 5538 5535 5535 5534 5530 5527 5526 5525 5526 5530 5532 5531 5538 5549 5553 5568 5576 5590 5584 5580 5589 5613 5612 5612 5610 5616 5621 5624 5628
5516 5516 5520 5519 5530 5533 5537 5538 5537 5534 5535 5535 5535 5534 5542 5536 5533 5532 5532 5532 5530 5526 5522 5522 5524 5525 5529 5534 5543 5554 5555 5560 5564 5572 5571 5575 5580 5599 5605 5605 5605 5609 5616 5619 5625
5508 5509 5515 5513 5521 5524 5531 5536 5536 5536 5534 5535 5533 5532 5533 5532 5526 5530 5528 5529 5530 5529 5528 5524 5524 5529 5540 5538 5538 5540 5538 5545 5558 5567 5561 5564 5573 5594 5601 5602 5605 5607 5610 5614 5619
5500 5504 5507 5509 5514 5516 5522 5522 5501 5499 5530 5521 5521 5521 5523 5523 5527 5524 5523 5525 5527 5529 5530 5523 5529 5538 5538 5527 5527 5528 5528 5537 5551 5556 5550 5560 5567 5583 5601 5601 5606 5610 5611 5613 5615
5492 5497 5499 5504 5506 5506 5502 5496 5491 5493 5520 5522 5520 5521 5520 5516 5523 5522 5516 5521 5524 5528 5526 5528 5540 5529 5525 5525 5520 5524 5523 5531 5533 5547 5551 5549 5563 5585 5603 5606 5607 5612 5612 5608 5608
5485 5489 5493 5496 5497 5494 5492 5486 5486 5486 5524 5519 5518 5515 5512 5512 5515 5510 5510 5511 5513 5518 5523 5526 5533 5523 5522 5521 5522 5519 5530 5530 5527 5525 5531 5538 5540 5575 5598 5603 5607 5607 5605 5603 5601
5477 5479 5482 5485 5485 5485 5477 5477 5478 5482 5525 5503 5505 5502 5506 5504 5505 5504 5500 5503 5508 5515 5504 5523 5518 5516 5517 5522 5520 5519 5517 5516 5518 5518 5523 5537 5527 5560 5587 5586 5597 5591 5589 5592 5594
5467 5469 5471 5474 5473 5467 5467 5468 5473 5489 5517 5482 5489 5488 5497 5498 5497 5496 5494 5491 5493 5495 5502 5507 5509 5503 5514 5515 5512 5512 5511 5514 5511 5511 5508 5534 5539 5554 5577 5585 5581 5576 5570 5571 5572
5458 5460 5462 5459 5460 5458 5459 5467 5475 5498 5466 5458 5459 5466 5470 5475 5483 5483 5485 5487 5480 5480 5500 5502 5503 5498 5496 5499 5503 5499 5501 5501 5507 5495 5517 5524 5529 5552 5565 5567 5558 5556 5557 5559 5561
5450 5450 5449 5447 5445 5449 5454 5466 5477 5430 5433 5442 5446 5452 5462 5454 5466 5466 5474 5475 5457 5451 5465 5485 5493 5488 5486 5489 5496 5493 5491 5501 5509 5525 5529 5520 5521 5555 5550 5548 5546 5545 5546 5550 5552
5440 5443 5443 5439 5438 5440 5457 5462 5452 5428 5422 5426 5437 5435 5433 5439 5439 5457 5445 5440 5419 5423 5431 5452 5473 5472 5467 5469 5471 5479 5469 5491 5483 5467 5474 5517 5534 5546 5546 5537 5537 5537 5535 5539 5540
5432 5433 5437 5431 5430 5435 5438 5432 5414 5414 5413 5416 5419 5412 5420 5411 5430 5432 5434 5410 5407 5404 5398 5406 5422 5456 5454 5452 5457 5451 5462 5463 5464 5468 5490 5517 5513 5526 5526 5522 5521 5521 5519 5523 5527
5424 5431 5424 5421 5422 5430 5427 5404 5400 5403 5401 5403 5397 5396 5395 5392 5395 5401 5409 5389 5388 5388 5392 5392 5392 5438 5443 5448 5442 5441 5438 5440 5454 5474 5480 5494 5513 5520 5513 5508 5508 5504 5501 5504 5513
5415 5413 5411 5410 5411 5390 5397 5387 5385 5389 5389 5389 5391 5385 5378 5373 5378 5384 5391 5381 5370 5370 5359 5373 5370 5386 5415 5435 5431 5416 5417 5414 5415 5453 5463 5468 5487 5519 5502 5494 5490 5488 5487 5491 5495
5401 5400 5404 5404 5399 5380 5368 5377 5378 5374 5373 5374 5373 5372 5366 5353 5347 5351 5362 5358 5354 5353 5345 5350 5357 5357 5398 5407 5392 5383 5381 5372 5364 5373 5399 5417 5470 5499 5488 5470 5467 5468 5476 5479 5482
5386 5390 5383 5382 5372 5371 5360 5356 5358 5360 5359 5357 5355 5353 5345 5329 5337 5330 5341 5342 5334 5333 5331 5331 5332 5331 5355 5374 5346 5344 5357 5362 5351 5334 5372 5391 5424 5422 5423 5429 5457 5451 5456 5456 5462
5367 5359 5346 5362 5353 5352 5350 5346 5344 5341 5342 5340 5338 5334 5328 5309 5306 5303 5313 5320 5323 5321 5316 5310 5305 5310 5316 5327 5325 5329 5334 5337 5328 5333 5320 5374 5350 5363 5377 5393 5411 5428 5429 5433 5439
5358 5354 5337 5330 5329 5338 5331 5328 5330 5330 5327 5328 5321 5326 5321 5304 5310 5301 5301 5295 5302 5305 5296 5293 5291 5298 5296 5301 5298 5299 5315 5319 5329 5333 5338 5353 5358 5371 5379 5383 5385 5396 5403 5412 5417
5335 5333 5337 5331 5322 5322 5326 5322 5320 5323 5324 5321 5316 5311 5307 5308 5306 5303 5301 5298 5293 5284 5275 5275 5275 5259 5272 5282 5273 5263 5295 5304 5309 5317 5313 5313 5342 5338 5344 5347 5358 5373 5387 5399 5402